This is the latest recevied weather packets stored in our database for station/object LU5DTF-1. If no packets are shown the sender has not sent any weather packets the latest 10 day(s).
| Time | Temp. | Humidity | Pressure | Rain* | Wind** | Luminosity | Snow |
|---|---|---|---|---|---|---|---|
| 1777756196 | 12.22° C | 60% | 1022.6 hPa | 0 mm | - | - | - |
| 1777755896 | 12.22° C | 60% | 1022.6 hPa | 0 mm | - | - | - |
| 1777755596 | 12.78° C | 58% | 1022.6 hPa | 0 mm | - | - | - |
| 1777755296 | 12.78° C | 57% | 1022.7 hPa | 0 mm | - | - | - |
| 1777754996 | 12.78° C | 55% | 1022.7 hPa | 0 mm | - | - | - |
| 1777754696 | 12.78° C | 54% | 1022.7 hPa | 0 mm | - | - | - |
| 1777754396 | 12.78° C | 53% | 1022.7 hPa | 0 mm | - | - | - |
| 1777754096 | 12.78° C | 52% | 1022.6 hPa | 0 mm | - | - | - |
| 1777753796 | 13.33° C | 52% | 1022.7 hPa | 0 mm | - | - | - |
| 1777753496 | 13.33° C | 52% | 1022.5 hPa | 0 mm | - | - | - |
| 1777753196 | 13.33° C | 54% | 1022.8 hPa | 0 mm | - | - | - |
| 1777752896 | 13.33° C | 55% | 1022.8 hPa | 0 mm | - | - | - |
| 1777752596 | 13.33° C | 54% | 1022.7 hPa | 0 mm | - | - | - |
| 1777752296 | 13.33° C | 51% | 1022.7 hPa | 0 mm | - | - | - |
| 1777751996 | 13.33° C | 52% | 1022.6 hPa | 0 mm | - | - | - |
| 1777751696 | 13.33° C | 53% | 1022.5 hPa | 0 mm | - | - | - |
| 1777751396 | 13.33° C | 54% | 1022.4 hPa | 0 mm | - | - | - |
| 1777751096 | 13.33° C | 57% | 1022.6 hPa | 0 mm | - | - | - |
| 1777750796 | 13.33° C | 62% | 1022.5 hPa | 0 mm | - | - | - |
| 1777750496 | 13.33° C | 60% | 1022.5 hPa | 0 mm | - | - | - |
| 1777750196 | 13.33° C | 60% | 1022.3 hPa | 0 mm | - | - | - |
| 1777749896 | 13.33° C | 56% | 1022.1 hPa | 0 mm | - | - | - |
| 1777749596 | 13.33° C | 55% | 1022.1 hPa | 0 mm | - | - | - |
| 1777749296 | 13.33° C | 53% | 1022.1 hPa | 0 mm | - | - | - |
| 1777748996 | 13.33° C | 54% | 1022.2 hPa | 0 mm | - | - | - |
* Rain latest hour (hover to see other rain measurements)
** Current wind speed in m/s (hover to see current wind gust speed)